SB KEPS @ AMSAT $ORB10042.N 2Line Orbital Elements 10042.AMSAT
HR AMSAT ORBITAL ELEMENTS FOR AMATEUR SATELLITES IN NASA FORMAT FROM WA5QGD FORT WORTH,TX February 11, 2010 Send Subscribe/unsubscribe to KEPS at http://www.amsat.org/mailman/listinfo/keps BID: ORB10042.N
DECODE 2-LINE ELSETS WITH THE FOLLOWING KEY: 1 AAAAAU 00 0 0 BBBBB.BBBBBBBB .CCCCCCCC 00000-0 00000-0 0 DDDZ 2 AAAAA EEE.EEEE FFF.FFFF GGGGGGG HHH.HHHH III.IIII JJ.JJJJJJJJKKKKKZ KEY: A-CATALOGNUM B-EPOCHTIME C-DECAY D-ELSETNUM E-INCLINATION F-RAAN G-ECCENTRICITY H-ARGPERIGEE I-MNANOM J-MNMOTION K-ORBITNUM Z-CHECKSUM
TO ALL RADIO AMATEURS BT
AO-07 1 07530U 74089B 10042.66741957 -.00000027 00000-0 10000-3 0 7021 2 07530 101.4105 063.3713 0012073 159.8231 200.3315 12.53577593612723 FO-29 1 24278U 96046B 10041.57337580 -.00000052 00000-0 -19648-4 0 02479 2 24278 098.5210 248.1585 0351334 092.2809 271.8595 13.52947056665985 SO-33 1 25509U 98061B 10042.65828237 .00000132 00000-0 12045-4 0 6475 2 25509 031.4343 138.3676 0354519 272.2943 083.7158 14.28286317590098 RS-22 1 27939U 03042A 10042.65607109 .00000066 00000-0 21583-4 0 75 2 27939 097.9119 273.3304 0014618 094.7903 265.4970 14.63379705340591 VO-52 1 28650U 05017B 10042.66174973 .00000468 00000-0 65721-4 0 4329 2 28650 097.7108 100.8936 0026464 329.4703 030.5006 14.81680790258106 SO-67 1 35870U 09049F 10042.80204198 .00000678 00000-0 31874-4 0 4379 2 35870 097.3511 094.9531 0012381 131.7171 332.6406 15.22870573 22387 HO-68 1 36122U 09072B 10042.15061264 -.00000045 00000-0 00000 0 0 1300 2 36122 100.4878 103.7771 0007195 263.1659 096.8630 13.16279746 7638 UO-11 1 14781U 84021B 10042.72582329 .00000331 00000-0 51149-4 0 1736 2 14781 098.0743 093.9785 0008139 286.4732 073.5573 14.79767916393257 AO-16 1 20439U 90005D 10041.84651275 .00000026 00000-0 25289-4 0 8195 2 20439 098.3156 004.8359 0010911 176.9453 183.1800 14.31847718 47307 LO-19 1 20442U 90005G 10041.79474623 .00000016 00000-0 21219-4 0 7303 2 20442 098.2768 011.1014 0012073 172.7613 187.3744 14.32080700 47462 AO-27 1 22825U 93061C 10041.72462856 .00000114 00000-0 61576-4 0 04567 2 22825 098.4703 353.0435 0007494 282.6809 077.3519 14.29286416853982 IO-26 1 22826U 93061D 10041.81264372 .00000039 00000-0 32016-4 0 01897 2 22826 098.4641 353.7802 0008048 278.2681 081.7599 14.29540373854101 GO-32 1 25397U 98043D 10042.81637403 -.00000182 00000-0 -62588-4 0 1100 2 25397 098.3173 057.1562 0000294 286.9358 073.1769 14.23170116602211 NO-44 1 26931U 01043C 10042.76418237 .00000179 00000-0 10219-3 0 3845 2 26931 067.0513 167.1151 0006642 263.6292 096.4048 14.29583401436826 SO-50 1 27607U 02058C 10042.41776050 .00000036 00000-0 27385-4 0 1006 2 27607 064.5580 018.5134 0039245 134.4617 225.9701 14.71497016383878 CO-55 1 27844U 03031E 10041.60711627 .00000031 00000-0 34542-4 0 07789 2 27844 098.7118 052.3872 0009788 172.3104 187.8221 14.20682781343118 CO-57 1 27848U 03031J 10042.67492236 .00000041 00000-0 39426-4 0 7285 2 27848 098.7175 052.5163 0009812 171.6300 188.5033 14.20479098343224 AO-51 1 28375U 04025K 10042.57907200 .00000014 00000-0 16442-4 0 6019 2 28375 098.0559 043.2655 0084421 117.8930 243.0843 14.40668416295422 CO-56 1 28941U 06005C 09297.68475575 .14491492 29743-5 25760-3 0 5565 2 28941 098.0955 138.9518 0011688 319.8691 040.7485 16.46998778207909 GENESAT1 1 29655U 06058C 10042.57395701 .00038912 00000-0 26596-3 0 9411 2 29655 040.0179 116.0014 0003811 129.0580 231.0569 15.73944989180083 CP3 1 31129U 07012N 10041.78386239 .00000151 00000-0 45832-4 0 05043 2 31129 097.9617 088.0242 0100801 265.7941 093.1735 14.52207785149514 CO-65 1 32785U 08021C 10042.75291821 .00000530 00000-0 74171-4 0 6021 2 32785 097.9128 109.3305 0014443 336.9153 023.1424 14.81582463 96913 KKS-1 1 33493U 09002B 10042.78454359 .00000449 00000-0 65101-4 0 2015 2 33493 098.0702 161.3321 0019966 183.2906 176.8195 14.80845188 56923 SOHLA-1 1 33496U 09002E 10041.91832703 -.00000052 00000-0 -48801-6 0 00251 2 33496 098.0469 152.7172 0005640 240.3061 119.7560 14.69467300056335 NOAA-10 1 16969U 86073A 10041.62852476 -.00000100 00000-0 -22880-4 0 09516 2 16969 098.6723 071.7048 0011802 217.9014 142.1355 14.27405348217527 NOAA-11 1 19531U 88089A 10041.30709999 .00000104 00000-0 76326-4 0 09661 2 19531 098.7716 132.4875 0011761 146.5157 213.6766 14.14914275103197 NOAA-12 1 21263U 91032A 10041.94926153 -.00000070 00000-0 -10590-4 0 04492 2 21263 098.7695 055.1002 0012539 169.5366 190.6090 14.25614530974410 MET-3/5 1 21655U 91056A 10041.61598732 .00000051 00000-0 10000-3 0 07344 2 21655 082.5558 038.0556 0012535 309.7623 050.2340 13.17022721889013 MET-2/21 1 22782U 93055A 10041.38115158 .00000024 00000-0 81481-5 0 06935 2 22782 082.5499 353.0431 0023540 041.4653 318.8278 13.83641845830546 OKEAN-4 1 23317U 94066A 10042.73813439 .00000121 00000-0 12036-4 0 1516 2 23317 082.5410 110.9555 0020532 297.9306 061.9847 14.82764539827867 NOAA-14 1 23455U 94089A 10041.81463073 .00000007 00000-0 27331-4 0 09433 2 23455 098.8873 123.4019 0008640 232.1327 127.9067 14.13778467779645 NOAA-15 1 25338U 98030A 10041.89081998 .00000032 00000-0 32444-4 0 02640 2 25338 098.6091 031.1488 0011629 083.9196 276.3299 14.24806019610769 RESURS 1 25394U 98043A 10041.67781549 -.00000051 00000-0 -43174-5 0 4289 2 25394 098.3164 066.5866 0000761 197.0547 163.0616 14.24192115602348 FENGYUN1 1 25730U 99025A 10041.83275509 -.00000216 00000-0 -10127-3 0 09723 2 25730 098.7762 010.1353 0023376 263.2612 096.5918 14.08164733553901 OKEAN-0 1 25860U 99039A 10041.78111680 .00000051 00000-0 15090-4 0 09118 2 25860 097.8174 018.8839 0001727 098.2014 261.9390 14.73612128568281 NOAA-16 1 26536U 00055A 10041.86056265 .00000151 00000-0 10707-3 0 07427 2 26536 099.1783 056.3134 0009955 335.3995 024.6663 14.12546792483999 NOAA-17 1 27453U 02032A 10041.88406090 .00000214 00000-0 11117-3 0 07493 2 27453 098.4513 097.3121 0012324 143.1747 217.0259 14.24130212396728 NOAA-18 1 28654U 05018A 10041.89684983 .00000423 00000-0 25818-3 0 02326 2 28654 098.9355 348.6138 0015002 051.9437 308.3104 14.11328152243620 NOAA-19 1 33591U 09005A 10041.85736897 -.00000128 00000-0 -47035-4 0 04377 2 33591 098.7756 346.7460 0013343 289.3253 070.6483 14.11023106052094 HUBBLE 1 20580U 90037B 10042.17471048 .00000446 00000-0 21339-4 0 5153 2 20580 028.4707 342.4565 0003224 297.8634 062.1676 15.00891604885793 ISS 1 25544U 98067A 10042.75330333 -.00001711 00000-0 -66016-5 0 5659 2 25544 051.6452 154.6505 0011053 318.5383 197.9759 15.75838130643711 CO-58 1 28895U 05043F 10041.73094779 .00000093 00000-0 28881-4 0 05119 2 28895 098.0327 290.2690 0017308 324.6028 035.4022 14.59843440228533 FALCON 1 30776U 07006E 10041.52024305 .00000634 00000-0 48629-4 0 07717 2 30776 035.4330 093.2019 0000414 239.0767 120.9909 15.03453757160984 MAST 1 31126U 07012K 10041.69968509 -.00000043 00000-0 98731-6 0 07979 2 31126 097.9565 090.1467 0093653 259.2036 099.8618 14.53551043149686 CAPE1 1 31130U 07012P 10041.69725349 .00000395 00000-0 10210-3 0 08138 2 31130 097.9550 087.8081 0101693 266.4860 092.4689 14.52132920149303 COMPASS 1 32787U 08021E 10041.28818939 .00000685 00000-0 93461-4 0 05949 2 32787 097.9094 107.7109 0015355 342.3060 017.7622 14.81754304096703 AAUSAT2 1 32788U 08021F 10041.70830486 .00000146 00000-0 25122-4 0 05882 2 32788 097.9106 108.2282 0015031 342.5027 017.5644 14.81885974096779 DO-64 1 32789U 08021G 10041.79385276 .00000307 00000-0 45404-4 0 6036 2 32789 097.9153 108.6550 0015238 339.9445 020.1175 14.81951086 96785 CO-66 1 32791U 08021J 10042.23804641 .00000480 00000-0 67800-4 0 5834 2 32791 097.9114 108.6765 0015616 337.6104 022.4401 14.81561429 96808 RS-30 1 32953U 08025A 10042.72674787 .00000010 00000-0 00000 0 0 5235 2 32953 082.5017 107.7050 0019085 020.5485 339.6363 12.43003371 78152 TACSAT-3 1 35001U 09028A 10041.94383022 .00004252 00000-0 10827-3 0 02295 2 35001 040.4550 251.6613 0021132 139.9637 220.2741 15.40224243041156 PHARMSAT 1 35002U 09028B 10041.94579364 .00004334 00000-0 10765-3 0 02148 2 35002 040.4685 250.1681 0024015 144.8550 215.3855 15.40893858041163 HAWKSAT1 1 35003U 09028C 10041.92470920 .00008324 00000-0 19089-3 0 02180 2 35003 040.4603 248.0010 0022898 152.3926 207.8111 15.42508418041195 CP6 1 35004U 09028D 10041.90604571 .00009655 00000-0 21811-3 0 02128 2 35004 040.4595 247.8706 0022379 152.5916 207.6086 15.42840241041181 AEROCUB3 1 35005U 09028E 10042.83400969 .00020704 00000-0 45196-3 0 2138 2 35005 040.4684 242.8755 0020218 157.3921 202.7789 15.43455333 41326 DRAGNSAT 1 35690U 09038B 10042.65630175 .00154354 21148-4 30386-3 0 2452 2 35690 051.6334 137.3604 0002758 035.3943 324.7254 15.99735782 31153 POLLUX 1 35693U 09038E 10042.74422212 .00086672 14264-4 20946-3 0 2488 2 35693 051.6385 138.7650 0003587 061.3151 298.8272 15.96372977 31116 CASTOR 1 35694U 09038F 10042.50519728 .00033409 00000-0 12913-3 0 1889 2 35694 051.6392 144.8086 0003702 055.3990 304.7530 15.86917423 31012 METEOR-M 1 35865U 09049A 10042.09857683 .00000176 00000-0 10000-3 0 1240 2 35865 098.7768 096.6983 0002932 026.4040 333.7262 14.21828617 20803 RS-38 1 35869U 09049E 10042.36481610 .00000176 00000-0 10000-3 0 1270 2 35869 098.7776 096.9842 0004993 018.5817 341.5529 14.21975152 20840 /EX